Weather History for Staunton, VA

Change the Weather History Date:

Saturday, March 2, 2013

  Actual Average Record
Temperature  
Mean Temperature 34 °F -  
Max Temperature 37 °F 51 °F 75 °F (2006)
Min Temperature 30 °F 30 °F 17 °F (2009)
Degree Days  
Heating Degree Days 32    
Moisture  
Dew Point 20 °F    
Average Humidity 59    
Maximum Humidity 73    
Minimum Humidity 47    
Precipitation  
Precipitation 0.00 in - - ()
Sea Level Pressure  
Sea Level Pressure 29.86 in    
Wind  
Wind Speed 5 mph (NNW)    
Max Wind Speed 12 mph    
Max Gust Speed -    
Visibility 10 miles    
Events Snow    
Averages and records for this station are not official NWS values.
T = Trace of Precipitation, MM = Missing Value Source: NWS Daily Summary

Daily Weather History Graph

Daily Weather History Graph

Search for Another Location

Airport:

Trip Planner

Search our weather history database for the weather conditions in past years. The results will help you decide how hot, cold, wet, or windy it might be!

Date:

Astronomy

Mar. 02, 2013 Rise Set
Actual Time 6:45 AM EST 6:10 PM EST
Civil Twilight 6:19 AM EST 6:36 PM EST
Nautical Twilight 5:48 AM EST 7:07 PM EST
Astronomical Twilight 5:18 AM EST 7:37 PM EST
Moon 11:42 PM EST (3/2) 9:17 AM EST (3/2)
Length of Visible Light 12h 17m
Length of Day
11h 24m
Waning Gibbous, 74% of the Moon is Illuminated
Mar 2
Waning Gibbous
Mar 4
Last Quarter
Mar 11
New
Mar 19
First Quarter
Mar 27
Full

Hourly Weather History & Observations

Time (EST) Temp. Windchill Dew Point Humidity Pressure Visibility Wind Dir Wind Speed Gust Speed Precip Events Conditions
12:15 AM 34.3 °F 28.4 °F 18.9 °F 53% 29.90 in 10.0 mi NNW 6.9 mph - N/A   Overcast
12:35 AM 34.2 °F 26.8 °F 18.5 °F 53% 29.90 in 10.0 mi NNW 9.2 mph - N/A   Overcast
12:55 AM 34.0 °F 26.0 °F 19.2 °F 55% 29.89 in 10.0 mi NNW 10.4 mph - N/A   Overcast
1:15 AM 33.8 °F 27.7 °F 19.4 °F 56% 29.89 in 10.0 mi NNW 6.9 mph - N/A   Overcast
1:35 AM 33.8 °F 27.0 °F 20.3 °F 58% 29.89 in 10.0 mi North 8.1 mph - N/A   Overcast
1:55 AM 33.4 °F 28.1 °F 20.1 °F 58% 29.88 in 10.0 mi NNW 5.8 mph - N/A   Overcast
2:15 AM 33.3 °F 28.9 °F 20.3 °F 59% 29.88 in 10.0 mi NW 4.6 mph - N/A   Overcast
2:35 AM 33.3 °F - 20.7 °F 60% 29.88 in 10.0 mi Calm Calm - N/A   Overcast
2:55 AM 32.9 °F 29.8 °F 21.2 °F 62% 29.88 in 10.0 mi NW 3.5 mph - N/A   Overcast
3:15 AM 32.9 °F 29.8 °F 21.7 °F 64% 29.87 in 10.0 mi WNW 3.5 mph - N/A   Overcast
3:35 AM 32.9 °F 27.5 °F 20.8 °F 61% 29.86 in 10.0 mi NW 5.8 mph - N/A   Overcast
3:55 AM 32.9 °F 27.5 °F 20.8 °F 61% 29.86 in 10.0 mi WNW 5.8 mph - N/A   Overcast
4:15 AM 32.9 °F 28.5 °F 21.0 °F 62% 29.86 in 10.0 mi NW 4.6 mph - N/A   Overcast
4:35 AM 32.9 °F 27.5 °F 20.3 °F 60% 29.86 in 10.0 mi NW 5.8 mph - N/A   Overcast
4:55 AM 32.9 °F 26.7 °F 18.7 °F 56% 29.86 in 10.0 mi NW 6.9 mph - N/A   Overcast
5:15 AM 32.9 °F 26.7 °F 18.3 °F 55% 29.86 in 10.0 mi NW 6.9 mph - N/A   Overcast
5:35 AM 32.9 °F 26.7 °F 19.0 °F 57% 29.86 in 10.0 mi NW 6.9 mph - N/A   Overcast
5:55 AM 32.0 °F 28.7 °F 21.4 °F 65% 29.86 in 10.0 mi NE 3.5 mph - N/A   Overcast
6:15 AM 32.2 °F 28.9 °F 21.4 °F 64% 29.86 in 10.0 mi NNE 3.5 mph - N/A   Overcast
6:35 AM 32.0 °F 28.7 °F 21.7 °F 66% 29.86 in 10.0 mi NNE 3.5 mph - N/A   Overcast
6:55 AM 32.0 °F 28.7 °F 22.1 °F 67% 29.86 in 10.0 mi NE 3.5 mph - N/A   Overcast
7:15 AM 32.0 °F - 21.9 °F 66% 29.86 in 10.0 mi Calm Calm - N/A   Overcast
7:35 AM 32.0 °F - 21.9 °F 66% 29.87 in 10.0 mi Calm Calm - N/A   Overcast
7:55 AM 32.0 °F - 22.1 °F 67% 29.87 in 10.0 mi Calm Calm - N/A   Overcast
8:15 AM 32.0 °F 28.7 °F 22.3 °F 67% 29.88 in 10.0 mi North 3.5 mph - N/A   Overcast
8:35 AM 32.0 °F 27.5 °F 22.8 °F 69% 29.88 in 7.0 mi NNW 4.6 mph - N/A Snow Light Snow
8:55 AM 32.4 °F 27.9 °F 22.6 °F 67% 29.88 in 10.0 mi NW 4.6 mph - N/A   Overcast
9:15 AM 32.9 °F 29.8 °F 21.7 °F 64% 29.88 in 10.0 mi North 3.5 mph - N/A   Overcast
9:35 AM 32.7 °F 28.3 °F 21.7 °F 64% 29.88 in 10.0 mi NNW 4.6 mph - N/A   Overcast
9:55 AM 32.4 °F 26.9 °F 24.4 °F 73% 29.88 in 10.0 mi NE 5.8 mph - N/A   Overcast
10:15 AM 32.9 °F 27.5 °F 24.8 °F 72% 29.87 in 10.0 mi NNE 5.8 mph - N/A Snow Light Snow
10:35 AM 32.9 °F 29.8 °F 24.1 °F 70% 29.87 in 10.0 mi NNE 3.5 mph - N/A   Overcast
10:55 AM 33.1 °F 27.7 °F 24.6 °F 71% 29.87 in 5.0 mi NE 5.8 mph - N/A Snow Light Snow
11:15 AM 33.1 °F 27.7 °F 24.8 °F 72% 29.86 in 5.0 mi NE 5.8 mph - N/A Snow Light Snow
11:35 AM 32.9 °F 27.5 °F 25.0 °F 73% 29.87 in 5.0 mi North 5.8 mph - N/A Snow Light Snow
11:55 AM 32.7 °F 28.3 °F 24.4 °F 72% 29.86 in 5.0 mi NNE 4.6 mph - N/A Snow Light Snow
12:15 PM 33.4 °F 29.1 °F 23.2 °F 66% 29.86 in 10.0 mi NW 4.6 mph - N/A   Overcast
12:35 PM 34.0 °F - 23.2 °F 65% 29.85 in 10.0 mi Calm Calm - N/A   Overcast
12:55 PM 34.3 °F - 22.3 °F 61% 29.84 in 10.0 mi Calm Calm - N/A   Overcast
1:35 PM 35.8 °F - 20.8 °F 55% 29.82 in 10.0 mi Calm Calm - N/A   Overcast
1:55 PM 36.1 °F - 20.5 °F 53% 29.82 in 10.0 mi Calm Calm - N/A   Overcast
2:15 PM 35.8 °F 33.0 °F 20.1 °F 53% 29.82 in 10.0 mi NNE 3.5 mph - N/A   Overcast
2:35 PM 36.5 °F 32.7 °F 20.5 °F 52% 29.82 in 10.0 mi North 4.6 mph - N/A   Overcast
2:55 PM 36.3 °F - 19.6 °F 51% 29.82 in 10.0 mi Calm Calm - N/A   Overcast
3:15 PM 36.9 °F 30.7 °F 18.3 °F 47% 29.81 in 10.0 mi NW 8.1 mph - N/A   Overcast
3:35 PM 37.4 °F 32.1 °F 18.9 °F 47% 29.81 in 10.0 mi North 6.9 mph - N/A   Overcast
3:55 PM 36.7 °F 30.5 °F 19.2 °F 49% 29.81 in 10.0 mi NNW 8.1 mph - N/A   Overcast
4:15 PM 36.1 °F 28.7 °F 18.5 °F 49% 29.82 in 10.0 mi WNW 10.4 mph - N/A   Overcast
4:35 PM 35.8 °F 27.8 °F 17.8 °F 48% 29.82 in 10.0 mi NW 11.5 mph - N/A   Overcast
4:55 PM 35.8 °F 27.8 °F 17.4 °F 47% 29.83 in 10.0 mi NW 11.5 mph - N/A   Overcast
5:15 PM 35.2 °F 27.6 °F 17.2 °F 48% 29.84 in 10.0 mi WNW 10.4 mph - N/A   Overcast
5:35 PM 34.9 °F 27.7 °F 16.9 °F 48% 29.84 in 10.0 mi NW 9.2 mph - N/A   Overcast
5:55 PM 34.7 °F 27.5 °F 16.9 °F 48% 29.85 in 10.0 mi WNW 9.2 mph - N/A   Overcast
6:15 PM 34.3 °F 27.7 °F 17.4 °F 50% 29.85 in 10.0 mi WNW 8.1 mph - N/A   Overcast
6:35 PM 34.0 °F 28.0 °F 17.6 °F 51% 29.86 in 10.0 mi WNW 6.9 mph - N/A   Overcast
6:55 PM 33.8 °F 26.4 °F 17.4 °F 51% 29.86 in 10.0 mi NW 9.2 mph - N/A   Overcast
7:15 PM 32.9 °F 28.5 °F 18.3 °F 55% 29.86 in 10.0 mi NW 4.6 mph - N/A   Overcast
7:35 PM 31.8 °F 27.3 °F 18.7 °F 58% 29.86 in 10.0 mi NW 4.6 mph - N/A   Overcast
7:55 PM 32.0 °F 26.4 °F 18.0 °F 56% 29.86 in 10.0 mi NW 5.8 mph - N/A   Overcast
8:15 PM 30.9 °F 27.5 °F 18.1 °F 59% 29.86 in 10.0 mi NW 3.5 mph - N/A   Mostly Cloudy
8:35 PM 30.4 °F - 19.2 °F 63% 29.86 in 10.0 mi Calm Calm - N/A   Overcast
8:55 PM 31.1 °F - 18.5 °F 60% 29.87 in 10.0 mi Calm Calm - N/A   Overcast
9:15 PM 31.1 °F 27.7 °F 19.9 °F 63% 29.87 in 10.0 mi WNW 3.5 mph - N/A   Overcast
9:35 PM 31.6 °F 28.3 °F 18.5 °F 58% 29.87 in 10.0 mi NW 3.5 mph - N/A   Overcast
9:55 PM 32.0 °F - 17.4 °F 55% 29.87 in 10.0 mi Calm Calm - N/A   Overcast
10:15 PM 32.0 °F - 18.0 °F 56% 29.87 in 10.0 mi Calm Calm - N/A   Overcast
10:35 PM 31.1 °F - 18.5 °F 60% 29.87 in 10.0 mi Calm Calm - N/A   Overcast
10:55 PM 30.6 °F 27.1 °F 19.2 °F 63% 29.87 in 10.0 mi WNW 3.5 mph - N/A   Overcast
11:15 PM 31.8 °F 27.3 °F 18.3 °F 57% 29.87 in 10.0 mi NW 4.6 mph - N/A   Overcast
11:35 PM 31.3 °F 27.9 °F 17.6 °F 57% 29.87 in 10.0 mi NW 3.5 mph - N/A   Overcast
11:55 PM 31.1 °F 27.7 °F 16.9 °F 56% 29.87 in 10.0 mi NNW 3.5 mph - N/A   Overcast